[[{"header":{"parameterUnit":"m.s-1","parameterCategory":2,"la1":30.2991,"la2":30.254,"lo1":-89.0895,"lo2":-89.0444,"dy":0.0017,"dx":0.0017,"nx":28,"ny":28,"refTime":"2026-02-14T09:00:00:Z","depth":"0","parameterNumber":2,"parameterNumberName":"U-component_of_CURRENTS"},"data":[0,0,0,0,0,0,0,0,0,0,0,0,0,0,0,0,0,0,0,0,0,0,0,0,0,0,0,0,0,0,0,0,0,0,0,0,0,0,0,0,0,0,0,0,0,0,0,0,0,0,0,0,0,0,0,0,0,0,0.2408,0.2408,0,0.2452,0.2452,0.2453,0.2451,0.245,0.245,0.245,0.2451,0.2452,0.2452,0,0,0,0,0,0,0,0,0,0,0,0,0,0.2327,0.2328,0.2408,0.2408,0.2409,0.2452,0.2452,0.2453,0.2451,0.245,0.245,0.2449,0.2451,0.2452,0.2452,0,0,0,0,0,0,0,0,0,0,0,0,0,0.2363,0.2329,0.2407,0.2415,0.2417,0.2452,0.2452,0.2453,0.2451,0.245,0.245,0.2449,0.2451,0.2452,0.2452,0.2467,0,0,0.2454,0.2454,0,0,0,0,0,0,0,0,0.2361,0.2366,0.2413,0.2415,0.2417,0.2448,0.2425,0.2456,0.2451,0.2435,0.245,0.2449,0.2448,0.2449,0.2455,0.2467,0.2467,0.2454,0.2454,0.2455,0.2455,0,0,0,0,0,0,0,0.2359,0.2364,0.2422,0.2414,0.2416,0.2419,0.2423,0.2431,0.2441,0.2436,0.2437,0.2446,0.2448,0.2455,0.2455,0.2467,0.2454,0.2455,0.2455,0.2455,0.2514,0.2515,0,0,0,0,0,0,0.2359,0.2362,0.2421,0.2424,0.239,0.2421,0.2426,0.2436,0.2442,0.2444,0.2447,0.2446,0.2454,0.2455,0.2455,0.2497,0.2455,0.2455,0.2456,0.2513,0.2514,0.2515,0,0,0,0,0,0,0.2358,0.2364,0.2419,0.2396,0.2403,0.2423,0.2435,0.2437,0.2447,0.2451,0.2451,0.2454,0.2454,0.2455,0.2472,0.2496,0.2456,0.2456,0.2511,0.2513,0.2515,0.2565,0,0,0,0,0,0,0.2355,0.2363,0.237,0.2396,0.2405,0.2446,0.2436,0.2439,0.2455,0.2454,0.2458,0.2457,0.2453,0.2471,0.2473,0.2496,0.2457,0.251,0.2512,0.2514,0.2562,0.2568,0.2574,0,0,0,0,0,0.2352,0.2364,0.237,0.2377,0.2413,0.2447,0.2452,0.2462,0.2455,0.2466,0.247,0.2457,0.2486,0.2473,0.2474,0.2498,0.2509,0.2511,0.2514,0.2559,0.2567,0.2574,0,0,0,0,0,0,0.2329,0.2366,0.2373,0.2394,0.2422,0.2448,0.2461,0.2466,0.2478,0.2477,0.2472,0.2473,0.2498,0.2492,0.2477,0.2522,0.2496,0.2499,0.253,0.2537,0.2543,0.2547,0.2457,0,0,0,0,0,0.2329,0.235,0.2384,0.2402,0.2417,0.2439,0.2453,0.2464,0.248,0.2485,0.2488,0.2495,0.2511,0.2518,0.2528,0.2551,0.2562,0.2568,0.2574,0.2579,0.2584,0.2623,0.2634,0.2524,0.2524,0.2524,0,0,0.2325,0.2349,0.236,0.2399,0.242,0.2449,0.2446,0.2475,0.2497,0.2483,0.2509,0.2515,0.2523,0.2552,0.2563,0.2549,0.262,0.2583,0.2587,0.2589,0.2627,0.2638,0.2648,0.2526,0.2526,0.2525,0,0,0.2331,0.2351,0.2372,0.2399,0.2439,0.2458,0.2468,0.2499,0.2512,0.254,0.2541,0.2563,0.2578,0.2596,0.2605,0.265,0.2651,0.2652,0.2686,0.2725,0.2734,0.2743,0.2785,0.2797,0.2655,0.2655,0.2655,0,0.2323,0.2356,0.2383,0.2413,0.2438,0.2463,0.2492,0.2516,0.2547,0.2567,0.2553,0.2601,0.2602,0.2652,0.2666,0.2664,0.2687,0.2658,0.2733,0.2742,0.2749,0.2791,0.2803,0.2658,0.2657,0.2657,0.2657,0,0.2348,0.2376,0.2394,0.2441,0.247,0.2501,0.2541,0.2568,0.2583,0.2607,0.2655,0.2664,0.2693,0.27,0.2695,0.2756,0.2756,0.2737,0.2715,0.2763,0.2804,0.2816,0.2662,0.2661,0.266,0.2659,0,0,0.2324,0.2396,0.2401,0.2429,0.2488,0.2515,0.2564,0.2618,0.2653,0.2681,0.273,0.2759,0.2767,0.2778,0.2783,0.2813,0.2887,0.28,0.2801,0.2843,0.2985,0.2998,0.3012,0.2883,0.2885,0.2887,0.2997,0,0.2335,0.2387,0.2425,0.2478,0.251,0.2556,0.2599,0.2651,0.2691,0.2744,0.2776,0.2818,0.2798,0.2816,0.2848,0.2881,0.2919,0.286,0.2931,0.2933,0.2939,0.3026,0.298,0.3075,0.3009,0.3011,0.3012,0,0.2343,0.2381,0.2426,0.2502,0.2521,0.255,0.2627,0.267,0.2754,0.2791,0.2846,0.2875,0.2941,0.2903,0.2993,0.2959,0.2977,0.2993,0.2998,0.2999,0.2969,0.3013,0.3099,0.3065,0.303,0.3029,0.3027,0,0.2305,0.2382,0.2415,0.244,0.2525,0.2551,0.2593,0.2674,0.2734,0.282,0.2881,0.2948,0.3001,0.3034,0.308,0.3042,0.3177,0.3125,0.3157,0.3158,0.3126,0.3121,0.3186,0.3185,0.3184,0.3184,0.3184,0,0.2297,0.2326,0.2395,0.2413,0.246,0.2523,0.258,0.264,0.2746,0.2818,0.2895,0.2973,0.3037,0.3122,0.3128,0.3205,0.3221,0.3191,0.3198,0.3144,0.314,0.3112,0.3081,0.3188,0.3187,0.3186,0.3186,0,0.2246,0.2292,0.2336,0.2414,0.2439,0.2464,0.2574,0.262,0.273,0.2831,0.287,0.303,0.3138,0.3211,0.3289,0.3285,0.3271,0.3347,0.3289,0.3287,0.3256,0.3229,0.3157,0.305,0.3398,0.3399,0.34,0,0.2226,0.224,0.2315,0.2332,0.2362,0.2417,0.2456,0.2584,0.2648,0.2852,0.2901,0.3073,0.3178,0.3345,0.3384,0.3448,0.3323,0.3415,0.3323,0.3281,0.3256,0.3093,0.2994,0.3307,0.3307,0.3307,0.3307,0,0.2184,0.2202,0.2232,0.2271,0.2303,0.2355,0.2425,0.2491,0.2638,0.2757,0.291,0.3024,0.3233,0.3314,0.3438,0.3451,0.3291,0.3418,0.339,0.3217,0.3029,0.292,0.321,0.3308,0.3308,0.3308,0.3308,0.3308,0.2137,0.2141,0.2171,0.2202,0.2239,0.2271,0.2288,0.2394,0.2507,0.2664,0.2824,0.2978,0.3211,0.34,0.3392,0.3414,0.3307,0.3341,0.3323,0.3169,0.3026,0.3329,0.3419,0.342,0.342,0.3421,0.3421,0,0.2069,0.2079,0.2104,0.213,0.2133,0.2182,0.225,0.2265,0.2351,0.2555,0.2691,0.2964,0.3132,0.3283,0.3435,0.3355,0.3149,0.3273,0.304,0.2949,0.3265,0.3223,0.3257,0.3257,0.3257,0.3257,0.3257,0.3257,0.2029,0.2015,0.2032,0.2012,0.2028,0.2003,0.2016,0.2069,0.2195,0.2381,0.2553,0.2731,0.3136,0.3437,0.3458,0.3358,0.3073,0.2973,0.2888,0.316,0.3163,0.3166,0.3121,0.3133,0.3133,0.2456,0.2452,0.2449]},{"header":{"parameterUnit":"m.s-1","parameterCategory":2,"la1":30.2991,"la2":30.254,"lo1":-89.0895,"lo2":-89.0444,"dy":0.0017,"dx":0.0017,"nx":28,"ny":28,"refTime":"2026-02-14T09:00:00:Z","depth":"0","parameterNumber":3,"parameterNumberName":"V-component_of_CURRENTS"},"data":[0,0,0,0,0,0,0,0,0,0,0,0,0,0,0,0,0,0,0,0,0,0,0,0,0,0,0,0,0,0,0,0,0,0,0,0,0,0,0,0,0,0,0,0,0,0,0,0,0,0,0,0,0,0,0,0,0,0,-0.0148,-0.0148,0,-0.0211,-0.0212,-0.0213,-0.0264,-0.0264,-0.0265,-0.0265,-0.0356,-0.0358,-0.036,0,0,0,0,0,0,0,0,0,0,0,0,0,-0.0128,-0.0128,-0.0147,-0.0148,-0.0149,-0.0211,-0.0212,-0.0213,-0.0264,-0.0264,-0.0265,-0.0265,-0.0356,-0.0358,-0.0361,0,0,0,0,0,0,0,0,0,0,0,0,0,-0.016,-0.0128,-0.0147,-0.018,-0.0184,-0.0211,-0.0212,-0.0214,-0.0264,-0.0265,-0.0265,-0.0265,-0.0355,-0.0358,-0.0361,-0.037,0,0,-0.0371,-0.0372,0,0,0,0,0,0,0,0,-0.0158,-0.0161,-0.0175,-0.0178,-0.0182,-0.0229,-0.0239,-0.0267,-0.0264,-0.0235,-0.0265,-0.0266,-0.0315,-0.0321,-0.0334,-0.0375,-0.0379,-0.0371,-0.0373,-0.0374,-0.0375,0,0,0,0,0,0,0,-0.0156,-0.0159,-0.0175,-0.0175,-0.018,-0.0212,-0.0216,-0.0245,-0.0273,-0.0238,-0.0241,-0.0245,-0.0317,-0.0331,-0.0337,-0.038,-0.0371,-0.0374,-0.0376,-0.0377,-0.0439,-0.0439,0,0,0,0,0,0,-0.014,-0.0156,-0.0173,-0.0176,-0.0169,-0.0211,-0.0217,-0.0215,-0.0273,-0.0281,-0.0245,-0.0247,-0.0325,-0.0333,-0.034,-0.0349,-0.0374,-0.0377,-0.0379,-0.0439,-0.0439,-0.0439,0,0,0,0,0,0,-0.014,-0.0141,-0.017,-0.0167,-0.0173,-0.021,-0.0208,-0.0216,-0.0228,-0.0277,-0.0287,-0.0249,-0.0326,-0.0336,-0.0361,-0.0353,-0.0379,-0.0381,-0.044,-0.0439,-0.0439,-0.0371,0,0,0,0,0,0,-0.0139,-0.014,-0.0135,-0.0165,-0.0172,-0.0178,-0.0208,-0.0216,-0.0229,-0.0233,-0.0284,-0.0293,-0.0327,-0.0356,-0.0364,-0.0358,-0.0384,-0.044,-0.044,-0.0439,-0.0373,-0.0368,-0.0364,0,0,0,0,0,-0.0138,-0.012,-0.0134,-0.0136,-0.0163,-0.0177,-0.0183,-0.0214,-0.0228,-0.0229,-0.0264,-0.0292,-0.0359,-0.0358,-0.0368,-0.0363,-0.044,-0.044,-0.0439,-0.0376,-0.0369,-0.0364,0,0,0,0,0,0,-0.0107,-0.0124,-0.014,-0.0129,-0.015,-0.0185,-0.0185,-0.0207,-0.0236,-0.0238,-0.0288,-0.0299,-0.032,-0.035,-0.0348,-0.038,-0.0404,-0.0406,-0.0353,-0.0347,-0.0343,-0.0321,-0.0387,0,0,0,0,0,-0.0097,-0.0091,-0.0117,-0.0109,-0.0115,-0.015,-0.016,-0.0178,-0.0206,-0.022,-0.0256,-0.0293,-0.0326,-0.0342,-0.0374,-0.0389,-0.0419,-0.0393,-0.0388,-0.0384,-0.0373,-0.0417,-0.0415,-0.0437,-0.0437,-0.0437,0,0,-0.0083,-0.0092,-0.0089,-0.0103,-0.0121,-0.0118,-0.0157,-0.0162,-0.0163,-0.0224,-0.0236,-0.0278,-0.0326,-0.0345,-0.0357,-0.0368,-0.0392,-0.0383,-0.0379,-0.0371,-0.0416,-0.0414,-0.0412,-0.0437,-0.0437,-0.0437,0,0,-0.0046,-0.0058,-0.004,-0.0052,-0.0069,-0.009,-0.0087,-0.0118,-0.0135,-0.0152,-0.0197,-0.023,-0.0278,-0.031,-0.0334,-0.0321,-0.0365,-0.0334,-0.0291,-0.0333,-0.0332,-0.0331,-0.0357,-0.0359,-0.033,-0.033,-0.033,0,-0.0029,-0.001,-0.0038,-0.0025,-0.0025,-0.0071,-0.0051,-0.0075,-0.0111,-0.012,-0.0145,-0.0217,-0.026,-0.0285,-0.0284,-0.0309,-0.0336,-0.0308,-0.0326,-0.0326,-0.0326,-0.0353,-0.0356,-0.0327,-0.0327,-0.0328,-0.0328,0,0.0019,0.0033,0.0044,0.0046,0.004,0.005,0.0019,0.0009,-0.002,-0.0049,-0.0081,-0.0145,-0.0185,-0.0209,-0.0244,-0.0264,-0.0284,-0.0315,-0.0337,-0.0319,-0.035,-0.0354,-0.0322,-0.0323,-0.0324,-0.0325,0,0,0.0064,0.0077,0.0081,0.0099,0.0081,0.0087,0.0085,0.0073,0.0079,0.0024,0.0022,-0.005,-0.0089,-0.0118,-0.0172,-0.0212,-0.0241,-0.0258,-0.0262,-0.0277,-0.0324,-0.0336,-0.0342,-0.0278,-0.0279,-0.0279,-0.0342,0,0.0111,0.0161,0.0148,0.0191,0.0216,0.0179,0.0184,0.0164,0.0133,0.0117,0.0041,0.0016,-0.0054,-0.007,-0.0124,-0.0211,-0.025,-0.022,-0.0345,-0.0348,-0.0356,-0.0347,-0.0344,-0.04,-0.0346,-0.0347,-0.0347,0,0.0164,0.0192,0.0246,0.0275,0.0282,0.0292,0.0299,0.0296,0.0254,0.0229,0.0181,0.0124,0.0059,-0.0004,-0.014,-0.0119,-0.021,-0.0283,-0.0288,-0.0324,-0.0368,-0.0412,-0.041,-0.0594,-0.0354,-0.0354,-0.0353,0,0.0218,0.0263,0.0311,0.0319,0.0338,0.0351,0.0352,0.0328,0.0347,0.0298,0.0308,0.0208,0.0172,0.004,-0.011,-0.0126,-0.0259,-0.0303,-0.0398,-0.04,-0.0434,-0.0437,-0.0618,-0.0395,-0.0395,-0.0395,-0.0395,0,0.0276,0.0316,0.0341,0.0367,0.0428,0.0409,0.0458,0.044,0.0438,0.0473,0.0369,0.0379,0.018,0.0083,-0.0073,-0.0239,-0.0233,-0.0383,-0.0417,-0.0409,-0.041,-0.0601,-0.0719,-0.0397,-0.0397,-0.0396,-0.0396,0,0.0329,0.0342,0.0404,0.0439,0.0455,0.0493,0.0541,0.0579,0.0557,0.0599,0.0595,0.0511,0.0379,0.0185,-0.0025,-0.0174,-0.0454,-0.0404,-0.0372,-0.0401,-0.0663,-0.0776,-0.0996,-0.1072,-0.0518,-0.0519,-0.052,0,0.0359,0.0397,0.0462,0.0506,0.0523,0.0579,0.0624,0.0631,0.0687,0.069,0.0729,0.0623,0.0574,0.0267,-0.0024,-0.0291,-0.0477,-0.0466,-0.0504,-0.0672,-0.0825,-0.0905,-0.0958,-0.0523,-0.0523,-0.0524,-0.0524,0,0.042,0.0439,0.0492,0.0586,0.0645,0.0724,0.0792,0.0863,0.0879,0.092,0.0957,0.0919,0.0623,0.036,-0.0016,-0.0223,-0.0608,-0.0483,-0.0678,-0.0857,-0.0938,-0.1027,-0.0479,-0.0528,-0.0528,-0.0527,-0.0527,-0.0527,0.0463,0.0515,0.0584,0.0677,0.0753,0.086,0.0945,0.1029,0.113,0.1214,0.1152,0.1138,0.0726,0.0217,-0.0093,-0.0644,-0.0655,-0.0803,-0.0928,-0.0993,-0.1071,-0.0519,-0.0595,-0.0595,-0.0595,-0.0595,-0.0595,0,0.0524,0.0583,0.0673,0.0787,0.089,0.0914,0.1059,0.1157,0.1293,0.1367,0.1401,0.1201,0.0689,0.0161,-0.0577,-0.0987,-0.1147,-0.1232,-0.1361,-0.1394,-0.0919,-0.0923,-0.1049,-0.1049,-0.1048,-0.1048,-0.1048,-0.1048,0.0556,0.0656,0.0707,0.0885,0.0971,0.1122,0.1215,0.135,0.1452,0.1564,0.1574,0.1537,0.1132,-0.0253,-0.1194,-0.1431,-0.1726,-0.1819,-0.195,-0.165,-0.162,-0.1591,-0.1621,-0.1892,-0.1893,-0.2352,-0.2357,-0.2361]}],[{"header":{"parameterUnit":"m.s-1","parameterCategory":2,"la1":30.2991,"la2":30.254,"lo1":-89.0895,"lo2":-89.0444,"dy":0.0017,"dx":0.0017,"nx":28,"ny":28,"refTime":"2026-02-14T09:00:00:Z","depth":"2","parameterNumber":2,"parameterNumberName":"U-component_of_CURRENTS"},"data":[0,0,0,0,0,0,0,0,0,0,0,0,0,0,0,0,0,0,0,0,0,0,0,0,0,0,0,0,0,0,0,0,0,0,0,0,0,0,0,0,0,0,0,0,0,0,0,0,0,0,0,0,0,0,0,0,0,0,0.2255,0.2256,0,0.2298,0.2298,0.2299,0.2302,0.2302,0.2302,0.2301,0.2308,0.2309,0.2309,0,0,0,0,0,0,0,0,0,0,0,0,0,0.2178,0.2179,0.2255,0.2256,0.2256,0.2298,0.2298,0.2299,0.2302,0.2302,0.2302,0.2301,0.2308,0.2309,0.2309,0,0,0,0,0,0,0,0,0,0,0,0,0,0.2213,0.2179,0.2255,0.2265,0.2267,0.2298,0.2298,0.2299,0.2302,0.2302,0.2301,0.2301,0.2308,0.2308,0.2309,0.2319,0,0,0.2311,0.2311,0,0,0,0,0,0,0,0,0.2211,0.2215,0.2263,0.2264,0.2266,0.2297,0.2274,0.2305,0.2302,0.2286,0.2301,0.2301,0.2303,0.2304,0.2309,0.232,0.232,0.2311,0.2311,0.2311,0.2312,0,0,0,0,0,0,0,0.2208,0.2213,0.2269,0.2264,0.2266,0.2269,0.2273,0.228,0.2293,0.2287,0.2288,0.2297,0.2303,0.2309,0.231,0.232,0.2311,0.2311,0.2312,0.2312,0.237,0.2371,0,0,0,0,0,0,0.2209,0.2211,0.2268,0.2271,0.224,0.2271,0.2275,0.2285,0.2294,0.2296,0.2298,0.2298,0.2308,0.2309,0.231,0.2354,0.2311,0.2312,0.2312,0.2369,0.237,0.2372,0,0,0,0,0,0,0.2207,0.2213,0.2266,0.2244,0.2251,0.2272,0.2283,0.2286,0.2299,0.2303,0.2303,0.2309,0.2308,0.2309,0.2328,0.2353,0.2312,0.2313,0.2368,0.2369,0.2371,0.2422,0,0,0,0,0,0,0.2204,0.2212,0.222,0.2244,0.2253,0.2292,0.2284,0.2287,0.2306,0.2306,0.2312,0.2312,0.2308,0.2327,0.2329,0.2353,0.2313,0.2366,0.2368,0.2371,0.2419,0.2425,0.2431,0,0,0,0,0,0.2202,0.2214,0.222,0.2228,0.2263,0.2294,0.2298,0.231,0.2307,0.2318,0.2324,0.2312,0.2342,0.2329,0.233,0.2355,0.2365,0.2368,0.237,0.2416,0.2424,0.2431,0,0,0,0,0,0,0.2182,0.2217,0.2224,0.2246,0.2272,0.2295,0.231,0.2316,0.233,0.2331,0.2327,0.2328,0.2355,0.2348,0.2333,0.2379,0.2352,0.2355,0.2387,0.2394,0.24,0.2405,0.2314,0,0,0,0,0,0.2183,0.2204,0.2235,0.2254,0.2269,0.229,0.2304,0.2315,0.2332,0.2338,0.2342,0.2351,0.2367,0.2374,0.2384,0.2407,0.2416,0.2425,0.2431,0.2436,0.2441,0.2477,0.2487,0.2381,0.2381,0.2381,0,0,0.218,0.2203,0.2215,0.2252,0.2272,0.2299,0.2297,0.2327,0.235,0.2337,0.2365,0.2372,0.2378,0.2408,0.2419,0.2405,0.2474,0.2439,0.2444,0.2446,0.2481,0.2492,0.2501,0.2382,0.2382,0.2382,0,0,0.2188,0.2208,0.2229,0.2255,0.2294,0.2311,0.2322,0.2353,0.2367,0.2396,0.2398,0.2421,0.2437,0.2453,0.2461,0.2506,0.2506,0.251,0.2544,0.2579,0.2588,0.2596,0.2635,0.2646,0.2512,0.2512,0.2512,0,0.2183,0.2214,0.224,0.2269,0.2293,0.2318,0.2346,0.2369,0.2401,0.2421,0.241,0.2459,0.246,0.2507,0.2523,0.252,0.2541,0.2515,0.2588,0.2596,0.2603,0.264,0.2652,0.2515,0.2514,0.2514,0.2514,0,0.2206,0.2235,0.2252,0.2297,0.2325,0.2356,0.2394,0.2422,0.244,0.2463,0.2511,0.2521,0.255,0.2557,0.2553,0.2612,0.2611,0.2592,0.2569,0.2617,0.2653,0.2664,0.2519,0.2518,0.2517,0.2516,0,0,0.2187,0.2255,0.226,0.2287,0.2344,0.2369,0.2417,0.2469,0.2504,0.2535,0.2583,0.2613,0.2624,0.2634,0.2639,0.2667,0.2738,0.2655,0.2655,0.2693,0.2827,0.2826,0.2838,0.2734,0.2736,0.2737,0.2836,0,0.2198,0.2248,0.2284,0.2335,0.2365,0.2411,0.2452,0.2503,0.2543,0.2595,0.2627,0.2671,0.2653,0.2674,0.2703,0.2732,0.2767,0.2713,0.2775,0.2777,0.277,0.2851,0.2635,0.2706,0.2847,0.2849,0.285,0,0.2206,0.2243,0.2288,0.236,0.2378,0.2407,0.2483,0.2525,0.2606,0.2643,0.2698,0.2727,0.2792,0.2757,0.2839,0.2809,0.2825,0.2838,0.2842,0.2829,0.2796,0.2678,0.272,0.2868,0.2867,0.2866,0.2864,0,0.2172,0.2246,0.2279,0.2303,0.2383,0.2412,0.2454,0.2532,0.259,0.2675,0.2735,0.2798,0.2852,0.2881,0.2922,0.2888,0.3009,0.296,0.2975,0.2975,0.2798,0.2779,0.3014,0.3014,0.3014,0.3014,0.3013,0,0.2166,0.2195,0.2263,0.228,0.2329,0.2389,0.2448,0.2505,0.2608,0.2677,0.2753,0.2826,0.2887,0.2964,0.2967,0.3028,0.305,0.3006,0.301,0.2812,0.2794,0.2928,0.2917,0.3017,0.3017,0.3016,0.3015,0,0.212,0.2165,0.2208,0.2285,0.231,0.2338,0.2446,0.2491,0.2599,0.2696,0.2736,0.2883,0.298,0.3044,0.3112,0.3101,0.3139,0.3146,0.2921,0.2897,0.3066,0.3056,0.3173,0.3174,0.3175,0.3176,0.3176,0,0.2102,0.2116,0.2191,0.221,0.2241,0.2299,0.2338,0.2462,0.2523,0.2716,0.2762,0.292,0.3007,0.3148,0.3156,0.3199,0.3197,0.3009,0.2899,0.3096,0.3087,0.3076,0.3065,0.2684,0.268,0.2677,0.2675,0,0.2063,0.2083,0.2113,0.2155,0.219,0.2241,0.2311,0.2374,0.2514,0.2625,0.2763,0.286,0.3022,0.2992,0.3083,0.306,0.2985,0.2955,0.3225,0.2688,0.2645,0.2633,0.2636,0.2649,0.2652,0.2654,0.2655,0.2656,0.202,0.2026,0.2058,0.2091,0.213,0.2162,0.2178,0.2275,0.2377,0.2503,0.2652,0.2721,0.2802,0.2842,0.2789,0.2752,0.2938,0.2786,0.2789,0.2797,0.2734,0.2696,0.2699,0.2701,0.2704,0.2706,0.2708,0,0.1956,0.197,0.1996,0.2024,0.2026,0.2079,0.2143,0.2141,0.221,0.2349,0.2453,0.2336,0.2383,0.2441,0.2373,0.2416,0.2334,0.2299,0.2152,0.2184,0.221,0.2109,0.1912,0.1909,0.1905,0.1903,0,0,0.1919,0.1907,0.1923,0.1905,0.1926,0.1899,0.1911,0.1929,0.1999,0.2026,0.2057,0.227,0.2394,0.2103,0.2107,0.1987,0.2049,0.1917,0.2571,0.243,0.2451,0.2529,0.2417,0,0,0,0,0]},{"header":{"parameterUnit":"m.s-1","parameterCategory":2,"la1":30.2991,"la2":30.254,"lo1":-89.0895,"lo2":-89.0444,"dy":0.0017,"dx":0.0017,"nx":28,"ny":28,"refTime":"2026-02-14T09:00:00:Z","depth":"2","parameterNumber":3,"parameterNumberName":"V-component_of_CURRENTS"},"data":[0,0,0,0,0,0,0,0,0,0,0,0,0,0,0,0,0,0,0,0,0,0,0,0,0,0,0,0,0,0,0,0,0,0,0,0,0,0,0,0,0,0,0,0,0,0,0,0,0,0,0,0,0,0,0,0,0,0,-0.0024,-0.0024,0,-0.0085,-0.0086,-0.0087,-0.0137,-0.0137,-0.0137,-0.0138,-0.0223,-0.0225,-0.0227,0,0,0,0,0,0,0,0,0,0,0,0,0,-0.0004,-0.0004,-0.0024,-0.0024,-0.0025,-0.0085,-0.0086,-0.0087,-0.0137,-0.0137,-0.0138,-0.0138,-0.0223,-0.0225,-0.0227,0,0,0,0,0,0,0,0,0,0,0,0,0,-0.0035,-0.0004,-0.0024,-0.0056,-0.0059,-0.0085,-0.0086,-0.0087,-0.0137,-0.0137,-0.0138,-0.0138,-0.0222,-0.0225,-0.0228,-0.0234,0,0,-0.0237,-0.0238,0,0,0,0,0,0,0,0,-0.0033,-0.0036,-0.005,-0.0054,-0.0057,-0.0102,-0.011,-0.0137,-0.0136,-0.0109,-0.0138,-0.0138,-0.0184,-0.019,-0.0202,-0.0238,-0.0242,-0.0237,-0.0239,-0.024,-0.0241,0,0,0,0,0,0,0,-0.0031,-0.0034,-0.005,-0.0051,-0.0055,-0.0086,-0.009,-0.0116,-0.0144,-0.0111,-0.0115,-0.0119,-0.0186,-0.0199,-0.0204,-0.0243,-0.0237,-0.0239,-0.0241,-0.0242,-0.03,-0.03,0,0,0,0,0,0,-0.0016,-0.0031,-0.0048,-0.0051,-0.0045,-0.0085,-0.0091,-0.0089,-0.0144,-0.0152,-0.0118,-0.0121,-0.0194,-0.0201,-0.0208,-0.0217,-0.024,-0.0243,-0.0244,-0.03,-0.03,-0.03,0,0,0,0,0,0,-0.0016,-0.0017,-0.0045,-0.0042,-0.0048,-0.0084,-0.0082,-0.009,-0.0103,-0.0148,-0.0157,-0.0124,-0.0195,-0.0204,-0.0227,-0.0221,-0.0244,-0.0246,-0.0301,-0.03,-0.03,-0.0238,0,0,0,0,0,0,-0.0015,-0.0016,-0.0012,-0.0041,-0.0047,-0.0053,-0.0082,-0.009,-0.0104,-0.0108,-0.0156,-0.0165,-0.0196,-0.0223,-0.023,-0.0226,-0.0249,-0.0301,-0.03,-0.03,-0.024,-0.0236,-0.0232,0,0,0,0,0,-0.0014,0.0002,-0.0011,-0.0013,-0.0039,-0.0052,-0.0058,-0.0088,-0.0103,-0.0104,-0.0138,-0.0163,-0.0226,-0.0225,-0.0234,-0.023,-0.0301,-0.03,-0.03,-0.0242,-0.0237,-0.0232,0,0,0,0,0,0,0.0015,-0.0002,-0.0017,-0.0007,-0.0027,-0.006,-0.0061,-0.0083,-0.011,-0.0113,-0.016,-0.017,-0.019,-0.0217,-0.0215,-0.0246,-0.0268,-0.0269,-0.0221,-0.0216,-0.0212,-0.0192,-0.0251,0,0,0,0,0,0.0024,0.0029,0.0005,0.0011,0.0006,-0.0028,-0.0038,-0.0056,-0.0083,-0.0096,-0.013,-0.0166,-0.0195,-0.021,-0.024,-0.0254,-0.0283,-0.0258,-0.0254,-0.025,-0.0241,-0.0283,-0.0282,-0.0298,-0.0298,-0.0298,0,0,0.0036,0.0028,0.003,0.0017,-0.0001,0.0002,-0.0036,-0.0042,-0.0043,-0.01,-0.0112,-0.0151,-0.0196,-0.0213,-0.0225,-0.0235,-0.026,-0.0249,-0.0246,-0.0238,-0.0283,-0.0281,-0.028,-0.0298,-0.0298,-0.0298,0,0,0.007,0.0058,0.0075,0.0064,0.0047,0.0027,0.0029,-0.0001,-0.0018,-0.0035,-0.0077,-0.0108,-0.0153,-0.0183,-0.0204,-0.0193,-0.0236,-0.0205,-0.0167,-0.0208,-0.0207,-0.0207,-0.0235,-0.0238,-0.0202,-0.0202,-0.0202,0,0.0085,0.0103,0.0076,0.0089,0.0088,0.0044,0.0063,0.004,0.0005,-0.0004,-0.0029,-0.0097,-0.0137,-0.016,-0.0159,-0.0182,-0.021,-0.0181,-0.0202,-0.0202,-0.0202,-0.0232,-0.0236,-0.0199,-0.0199,-0.02,-0.02,0,0.013,0.0143,0.0153,0.0155,0.0149,0.0158,0.0129,0.0118,0.0089,0.0062,0.003,-0.003,-0.0069,-0.0091,-0.0124,-0.0144,-0.0164,-0.0192,-0.0212,-0.0197,-0.023,-0.0234,-0.0195,-0.0196,-0.0197,-0.0197,0,0,0.0171,0.0184,0.0187,0.0204,0.0187,0.0193,0.019,0.0178,0.0183,0.0128,0.0125,0.0058,0.0019,-0.0008,-0.0058,-0.0098,-0.013,-0.0141,-0.0145,-0.0163,-0.0214,-0.0229,-0.0236,-0.0164,-0.0164,-0.0165,-0.0233,0,0.0215,0.0262,0.025,0.0291,0.0314,0.0279,0.0283,0.0263,0.0232,0.0215,0.0143,0.0117,0.0052,0.0035,-0.0017,-0.01,-0.014,-0.0108,-0.0232,-0.0235,-0.0245,-0.0242,-0.0218,-0.0278,-0.0238,-0.0239,-0.024,0,0.0264,0.0291,0.0341,0.0369,0.0375,0.0385,0.0389,0.0386,0.0344,0.0319,0.0271,0.0216,0.0152,0.0093,-0.004,-0.0017,-0.0106,-0.0176,-0.0181,-0.0219,-0.0259,-0.0289,-0.0288,-0.0248,-0.0248,-0.0247,-0.0246,0,0.0314,0.0356,0.0402,0.041,0.0428,0.0439,0.0439,0.0415,0.0432,0.0382,0.0389,0.0292,0.0255,0.0128,-0.0017,-0.003,-0.0165,-0.0202,-0.0298,-0.03,-0.0315,-0.0317,-0.0294,-0.0294,-0.0294,-0.0293,-0.0293,0,0.0369,0.0406,0.0429,0.0454,0.0511,0.0493,0.0538,0.052,0.0515,0.0546,0.0446,0.0451,0.026,0.0164,0.0015,-0.015,-0.0143,-0.0287,-0.032,-0.0292,-0.0292,-0.0296,-0.0295,-0.0296,-0.0295,-0.0295,-0.0295,0,0.0417,0.0429,0.0488,0.0521,0.0536,0.0571,0.0616,0.065,0.0628,0.0665,0.0659,0.0572,0.0439,0.0252,0.0048,-0.0093,-0.0257,-0.0318,-0.0266,-0.0292,-0.0373,-0.0369,-0.0432,-0.0433,-0.0434,-0.0435,-0.0436,0,0.0445,0.0481,0.0543,0.0584,0.06,0.0653,0.0695,0.07,0.075,0.0747,0.0781,0.0671,0.0614,0.0311,0.0036,-0.0222,-0.0257,-0.0368,-0.0395,-0.0362,-0.0388,-0.0382,-0.0376,-0.039,-0.0391,-0.0391,-0.0391,0,0.0503,0.052,0.057,0.0659,0.0714,0.079,0.0852,0.0917,0.093,0.0963,0.0986,0.094,0.0648,0.0389,0.0028,-0.0153,-0.0329,-0.038,-0.0365,-0.0355,-0.0327,-0.0351,-0.0346,-0.0393,-0.0392,-0.0392,-0.0392,-0.0392,0.0542,0.0591,0.0656,0.0744,0.0816,0.0916,0.0996,0.1069,0.1158,0.1217,0.1152,0.1087,0.0777,0.0324,0.0001,-0.0344,-0.0333,-0.0447,-0.0445,-0.0442,-0.0421,-0.0397,-0.047,-0.0471,-0.0471,-0.0471,-0.0471,0,0.0599,0.0654,0.0739,0.0846,0.0942,0.0967,0.1101,0.1182,0.1299,0.1329,0.1339,0.1059,0.0749,0.0393,-0.0113,-0.0413,-0.0442,-0.0509,-0.0472,-0.0468,-0.0465,-0.0445,-0.0501,-0.0502,-0.0502,-0.0503,0,0,0.0628,0.0721,0.077,0.0936,0.1017,0.1156,0.1242,0.1347,0.1408,0.1452,0.1413,0.1313,0.087,0.051,0.0089,-0.0202,-0.0267,-0.0267,-0.0212,-0.0115,-0.0109,-0.0401,-0.0361,0,0,0,0,0]}],[{"header":{"parameterUnit":"m.s-1","parameterCategory":2,"la1":30.2991,"la2":30.254,"lo1":-89.0895,"lo2":-89.0444,"dy":0.0017,"dx":0.0017,"nx":28,"ny":28,"refTime":"2026-02-14T09:00:00:Z","depth":"4","parameterNumber":2,"parameterNumberName":"U-component_of_CURRENTS"},"data":[0,0,0,0,0,0,0,0,0,0,0,0,0,0,0,0,0,0,0,0,0,0,0,0,0,0,0,0,0,0,0,0,0,0,0,0,0,0,0,0,0,0,0,0,0,0,0,0,0,0,0,0,0,0,0,0,0,0,0.1484,0.1485,0,0.1555,0.1555,0.1556,0.1608,0.1609,0.1609,0.161,0.1677,0.1678,0.1679,0,0,0,0,0,0,0,0,0,0,0,0,0,0.1384,0.1385,0.1484,0.1485,0.1486,0.1555,0.1555,0.1556,0.1608,0.1609,0.161,0.161,0.1677,0.1678,0.1679,0,0,0,0,0,0,0,0,0,0,0,0,0,0.1436,0.1386,0.1484,0.1522,0.1526,0.1554,0.1555,0.1556,0.1608,0.1609,0.161,0.1611,0.1676,0.1678,0.168,0.1672,0,0,0.1685,0.1686,0,0,0,0,0,0,0,0,0.1433,0.144,0.1515,0.1519,0.1524,0.1575,0.1545,0.1596,0.1608,0.1575,0.161,0.1611,0.1643,0.1648,0.1656,0.1675,0.1678,0.1685,0.1686,0.1687,0.1688,0,0,0,0,0,0,0,0.143,0.1437,0.151,0.1516,0.1522,0.1532,0.154,0.1555,0.1601,0.1578,0.1582,0.1593,0.1646,0.1654,0.1658,0.1679,0.1685,0.1687,0.1688,0.1689,0.1787,0.1788,0,0,0,0,0,0,0.1424,0.1434,0.1508,0.1512,0.1482,0.1533,0.1542,0.1556,0.1601,0.161,0.1592,0.1595,0.1651,0.1656,0.1661,0.1741,0.1687,0.1689,0.169,0.1785,0.1787,0.1789,0,0,0,0,0,0,0.1422,0.143,0.1505,0.1476,0.1486,0.1534,0.1549,0.1557,0.1599,0.1613,0.1621,0.163,0.1652,0.1658,0.1705,0.1741,0.169,0.1691,0.1783,0.1786,0.1788,0.1846,0,0,0,0,0,0,0.1419,0.1429,0.1452,0.1476,0.1488,0.1543,0.1549,0.1558,0.1603,0.1609,0.1647,0.1652,0.1653,0.1703,0.1707,0.1742,0.1693,0.1781,0.1784,0.1787,0.1842,0.185,0.1856,0,0,0,0,0,0.1415,0.1437,0.1452,0.1462,0.1512,0.1544,0.1552,0.1586,0.1604,0.1627,0.1657,0.1653,0.1724,0.1706,0.171,0.1747,0.178,0.1784,0.1787,0.1839,0.1848,0.1856,0,0,0,0,0,0,0.1405,0.1445,0.1462,0.1496,0.1529,0.1554,0.1585,0.1604,0.1645,0.1662,0.1671,0.1679,0.1733,0.1731,0.1711,0.1783,0.1752,0.1756,0.1789,0.1798,0.1805,0.1806,0.1694,0,0,0,0,0,0.1412,0.1444,0.1476,0.1508,0.1527,0.1562,0.1585,0.161,0.1642,0.1663,0.1689,0.1718,0.1745,0.1766,0.1786,0.1825,0.1825,0.1852,0.1859,0.1865,0.187,0.1898,0.1908,0.18,0.18,0.18,0,0,0.1418,0.1446,0.1465,0.151,0.154,0.1571,0.1579,0.1626,0.166,0.1662,0.1726,0.1747,0.1761,0.1808,0.1832,0.1815,0.1899,0.187,0.1875,0.1876,0.1903,0.1913,0.1922,0.1802,0.1802,0.1801,0,0,0.1435,0.1472,0.1501,0.153,0.1583,0.1602,0.1622,0.1667,0.1701,0.1753,0.1767,0.181,0.1851,0.187,0.1882,0.194,0.1936,0.1953,0.1993,0.2021,0.203,0.2038,0.2061,0.207,0.1957,0.1958,0.1958,0,0.1442,0.1482,0.1514,0.1547,0.1579,0.1619,0.1654,0.1688,0.1745,0.1776,0.1784,0.1864,0.1878,0.1931,0.1956,0.1957,0.1972,0.1958,0.203,0.2038,0.2045,0.2066,0.2076,0.1961,0.196,0.196,0.196,0,0.1469,0.1513,0.1535,0.159,0.1626,0.1667,0.1712,0.176,0.1804,0.1835,0.191,0.1935,0.1981,0.1996,0.1996,0.2059,0.2054,0.2035,0.2006,0.2059,0.2079,0.2088,0.1965,0.1964,0.1963,0.1962,0,0,0.1452,0.1537,0.1549,0.1585,0.1656,0.1684,0.175,0.1811,0.186,0.1919,0.1981,0.2034,0.2058,0.2073,0.2086,0.2113,0.2178,0.2104,0.2104,0.2123,0.2247,0.213,0.2128,0.2177,0.2179,0.218,0.2243,0,0.1468,0.1532,0.1574,0.1642,0.1678,0.1738,0.1792,0.1856,0.1913,0.1981,0.2026,0.2089,0.2085,0.2122,0.215,0.2174,0.2204,0.2163,0.2195,0.2196,0.2082,0.2135,0.2186,0.225,0.2252,0.2253,0.2254,0,0.1473,0.152,0.1587,0.1674,0.1698,0.1746,0.1842,0.1896,0.199,0.2039,0.2108,0.2146,0.2217,0.2196,0.2267,0.2246,0.2257,0.2263,0.2265,0.2139,0.2095,0.2184,0.227,0.2269,0.2268,0.2267,0.2266,0,0.1433,0.1526,0.1583,0.1613,0.1714,0.1765,0.1824,0.1918,0.1981,0.2084,0.2146,0.2216,0.2278,0.2301,0.2333,0.2311,0.2395,0.2359,0.2262,0.2254,0.2314,0.2305,0.2401,0.2401,0.2401,0.2401,0.24,0,0.1416,0.1465,0.1575,0.1604,0.1679,0.1756,0.1844,0.1912,0.2024,0.2091,0.2179,0.2239,0.2311,0.2367,0.2365,0.2347,0.2425,0.2277,0.2263,0.2338,0.2331,0.2321,0.2311,0.2403,0.2402,0.2402,0.2402,0,0.1358,0.1432,0.1501,0.1619,0.1662,0.1716,0.1857,0.191,0.2031,0.2124,0.2168,0.2293,0.2353,0.2407,0.2453,0.2387,0.2377,0.235,0.2447,0.2436,0.2208,0.22,0.2234,0.223,0.2227,0.2225,0.2223,0,0.1332,0.1364,0.1498,0.154,0.1601,0.1699,0.1759,0.1896,0.1954,0.213,0.216,0.2285,0.2343,0.2319,0.2378,0.2373,0.2344,0.2325,0.2241,0.2208,0.2192,0.2189,0.2186,0.2218,0.2217,0.2216,0.2216,0,0.1277,0.1338,0.1394,0.1484,0.1558,0.1633,0.1733,0.1773,0.1917,0.2051,0.2101,0.2137,0.221,0.2233,0.2262,0.2247,0.2323,0.2293,0.2297,0.2218,0.2189,0.2175,0.2175,0.2205,0.2207,0.2208,0.2208,0,0.1236,0.126,0.1341,0.1408,0.1496,0.1537,0.1605,0.1673,0.1753,0.1939,0.1948,0.207,0.2182,0.2171,0.2189,0.2178,0.2131,0.2046,0.2063,0.2076,0.1994,0.1932,0.1864,0,0,0,0,0,0.1182,0.1199,0.1257,0.1321,0.1402,0.1453,0.1571,0.164,0.1784,0.1771,0.1857,0.1905,0.1944,0.2012,0.1966,0.2122,0.2143,0.206,0.2054,0.2147,0.2159,0.2077,0,0,0,0,0,0,0.1145,0.1194,0.122,0.1233,0.1259,0.1333,0.1402,0.1499,0.1504,0.1653,0.1683,0.1793,0.1859,0.1944,0.1928,0.1948,0.1907,0.2141,0.2136,0.214,0.2151,0.2161,0.2081,0,0,0,0,0]},{"header":{"parameterUnit":"m.s-1","parameterCategory":2,"la1":30.2991,"la2":30.254,"lo1":-89.0895,"lo2":-89.0444,"dy":0.0017,"dx":0.0017,"nx":28,"ny":28,"refTime":"2026-02-14T09:00:00:Z","depth":"4","parameterNumber":3,"parameterNumberName":"V-component_of_CURRENTS"},"data":[0,0,0,0,0,0,0,0,0,0,0,0,0,0,0,0,0,0,0,0,0,0,0,0,0,0,0,0,0,0,0,0,0,0,0,0,0,0,0,0,0,0,0,0,0,0,0,0,0,0,0,0,0,0,0,0,0,0,0.0095,0.0094,0,0.0051,0.0051,0.005,0.0017,0.0017,0.0017,0.0017,-0.0044,-0.0045,-0.0046,0,0,0,0,0,0,0,0,0,0,0,0,0,0.0112,0.0112,0.0095,0.0094,0.0094,0.0052,0.0051,0.005,0.0017,0.0017,0.0017,0.0016,-0.0043,-0.0045,-0.0047,0,0,0,0,0,0,0,0,0,0,0,0,0,0.0089,0.0112,0.0095,0.0073,0.0071,0.0052,0.0051,0.005,0.0017,0.0017,0.0017,0.0016,-0.0043,-0.0045,-0.0047,-0.0054,0,0,-0.0053,-0.0054,0,0,0,0,0,0,0,0,0.009,0.0088,0.0077,0.0075,0.0072,0.0041,0.0035,0.0015,0.0017,0.0036,0.0017,0.0016,-0.0016,-0.002,-0.0029,-0.0057,-0.006,-0.0053,-0.0055,-0.0056,-0.0056,0,0,0,0,0,0,0,0.0092,0.009,0.0076,0.0076,0.0073,0.0053,0.005,0.0031,0.0011,0.0035,0.0032,0.003,-0.0018,-0.0027,-0.0031,-0.006,-0.0053,-0.0055,-0.0057,-0.0057,-0.0105,-0.0105,0,0,0,0,0,0,0.0102,0.0092,0.0078,0.0075,0.0082,0.0054,0.005,0.005,0.0011,0.0006,0.003,0.0028,-0.0023,-0.0029,-0.0033,-0.0042,-0.0056,-0.0058,-0.0059,-0.0105,-0.0105,-0.0105,0,0,0,0,0,0,0.0103,0.0102,0.0079,0.0083,0.0079,0.0054,0.0054,0.0049,0.004,0.0008,0.0002,0.0026,-0.0024,-0.003,-0.0048,-0.0045,-0.0059,-0.0061,-0.0105,-0.0105,-0.0105,-0.0061,0,0,0,0,0,0,0.0104,0.0102,0.0106,0.0084,0.0079,0.0073,0.0054,0.0049,0.0039,0.0037,0.0003,-0.0003,-0.0025,-0.0044,-0.005,-0.0048,-0.0062,-0.0105,-0.0105,-0.0105,-0.0063,-0.006,-0.0057,0,0,0,0,0,0.0104,0.0114,0.0106,0.0104,0.0085,0.0073,0.0069,0.0049,0.004,0.0039,0.0016,-0.0002,-0.0048,-0.0046,-0.0052,-0.0051,-0.0105,-0.0105,-0.0105,-0.0064,-0.006,-0.0057,0,0,0,0,0,0,0.0124,0.0111,0.0102,0.0107,0.0093,0.0068,0.0068,0.0053,0.0034,0.0032,-0.0,-0.0008,-0.0023,-0.0043,-0.0039,-0.0065,-0.008,-0.0081,-0.0047,-0.0044,-0.0041,-0.0027,-0.0064,0,0,0,0,0,0.0131,0.0134,0.0116,0.012,0.0116,0.0092,0.0085,0.0072,0.0053,0.0044,0.002,-0.0006,-0.0028,-0.0039,-0.0061,-0.0073,-0.0099,-0.0078,-0.0075,-0.0072,-0.0066,-0.0106,-0.0106,-0.0104,-0.0104,-0.0104,0,0,0.014,0.0133,0.0135,0.0124,0.0112,0.0113,0.0087,0.0082,0.0081,0.0041,0.0032,0.0004,-0.0029,-0.0043,-0.0052,-0.0059,-0.0087,-0.0072,-0.007,-0.0065,-0.0106,-0.0106,-0.0106,-0.0104,-0.0104,-0.0104,0,0,0.0163,0.0154,0.0165,0.0157,0.0145,0.0131,0.0132,0.011,0.0098,0.0086,0.0056,0.0031,-0.0,-0.0025,-0.0041,-0.0036,-0.0071,-0.0045,-0.0019,-0.0058,-0.0058,-0.0059,-0.009,-0.0094,-0.0043,-0.0043,-0.0043,0,0.0173,0.0185,0.0166,0.0174,0.0174,0.0143,0.0155,0.0139,0.0113,0.0105,0.009,0.0038,0.0009,-0.0013,-0.0013,-0.0029,-0.0055,-0.0027,-0.0054,-0.0055,-0.0056,-0.0088,-0.0093,-0.0041,-0.0041,-0.0041,-0.0042,0,0.0203,0.0212,0.0219,0.022,0.0215,0.0221,0.02,0.0191,0.0172,0.0151,0.0126,0.0081,0.0051,0.0034,0.0012,-0.0011,-0.0027,-0.0045,-0.006,-0.0054,-0.0088,-0.0094,-0.0038,-0.0039,-0.0039,-0.004,0,0,0.0228,0.0239,0.0241,0.0254,0.0242,0.0245,0.0243,0.0232,0.0233,0.0194,0.0188,0.0138,0.011,0.0089,0.0052,0.0016,-0.0019,-0.0014,-0.0017,-0.004,-0.0101,-0.0105,-0.0112,-0.0043,-0.0044,-0.0045,-0.012,0,0.0257,0.0289,0.0283,0.0312,0.0328,0.0304,0.0307,0.0291,0.0268,0.0252,0.0196,0.0176,0.0132,0.0119,0.0074,0.0005,-0.0032,0.0004,-0.0107,-0.011,-0.0111,-0.0118,-0.0047,-0.0124,-0.0126,-0.0127,-0.0127,0,0.0288,0.0307,0.0344,0.0366,0.037,0.038,0.0382,0.0379,0.0344,0.0325,0.0286,0.0244,0.0188,0.015,0.0034,0.0058,-0.0014,-0.0072,-0.0076,-0.0097,-0.0125,-0.0134,-0.0138,-0.0137,-0.0137,-0.0136,-0.0135,0,0.032,0.0351,0.0386,0.0392,0.0407,0.0419,0.0422,0.0401,0.0412,0.0371,0.0373,0.0291,0.0259,0.0156,0.0037,0.0034,-0.0094,-0.0115,-0.0187,-0.0188,-0.018,-0.0179,-0.0196,-0.0196,-0.0196,-0.0195,-0.0195,0,0.0352,0.0381,0.0407,0.0425,0.047,0.046,0.0496,0.0481,0.0475,0.0491,0.0416,0.0405,0.0259,0.017,0.0053,-0.0082,-0.0085,-0.0181,-0.0208,-0.0161,-0.0156,-0.0185,-0.0182,-0.0198,-0.0198,-0.0197,-0.0197,0,0.0379,0.0394,0.044,0.0471,0.0488,0.0516,0.0558,0.058,0.0563,0.0581,0.0576,0.049,0.0368,0.022,0.0047,-0.005,-0.0185,-0.0233,-0.0163,-0.0185,-0.0257,-0.0251,-0.0318,-0.0319,-0.032,-0.032,-0.0321,0,0.0394,0.0422,0.048,0.0514,0.0533,0.058,0.0614,0.0621,0.065,0.0633,0.0644,0.0543,0.0465,0.0228,0.0056,-0.0168,-0.0202,-0.0271,-0.0273,-0.025,-0.027,-0.0264,-0.0258,-0.0322,-0.0322,-0.0322,-0.0322,0,0.0424,0.0446,0.0485,0.056,0.0609,0.067,0.0718,0.0749,0.0754,0.0748,0.0707,0.058,0.0439,0.0239,0.0063,-0.01,-0.0227,-0.0279,-0.0279,-0.0281,-0.0255,-0.0273,-0.0266,-0.0325,-0.0324,-0.0324,-0.0324,0,0.0446,0.048,0.0534,0.06,0.067,0.0733,0.0758,0.0788,0.0813,0.0792,0.0774,0.0615,0.0518,0.0274,0.0111,-0.005,-0.0095,-0.0148,-0.0155,-0.0155,-0.0091,-0.0035,-0.0058,0,0,0,0,0,0.0463,0.0505,0.057,0.0643,0.0714,0.0757,0.0818,0.0835,0.0847,0.083,0.0807,0.0675,0.0427,0.0317,0.0156,0.0085,-0.0132,-0.011,-0.0197,-0.0337,-0.0335,-0.0289,0,0,0,0,0,0,0.0473,0.0536,0.0571,0.0668,0.0726,0.0806,0.0848,0.0856,0.0848,0.0832,0.0707,0.0636,0.0398,0.0525,0.0156,0.0104,0.0026,-0.0227,-0.0231,-0.0339,-0.0337,-0.0334,-0.0287,0,0,0,0,0]}]]